TIANMU-1 17

Last updated on Wed Sep 17 2025 00:02:23 GMT+0000 (Coordinated Universal Time)

1 58702U 24004C 25259.60963584 .00006377 00000+0 27448-3 0 9996 2 58702 97.4650 81.3222 0004756 223.8336 136.2524 15.22956109 94075
UTC large
Height (km)
Speed (km/s)
/
Latitude / Longitude
Inclination (degrees)
Orbital Period (minutes)
Azimuth
Elevation
Range (km)
Doppler Factor

Next 0 passes for location: London (51.5072 / 0.1276)

Sorry there are no passes over London.